TimeEDT,TemperatureF,Dew PointF,Humidity,Sea Level PressureIn,VisibilityMPH,Wind Direction,Wind SpeedMPH,Gust SpeedMPH,PrecipitationIn,Events,Conditions,WindDirDegrees,DateUTC
12:15 AM,44.8,38.3,78,30.20,10.0,Calm,Calm,-,N/A,,Clear,0,2013-05-18 04:15:00
12:35 AM,45.0,39.2,80,30.20,10.0,Calm,Calm,-,N/A,,Clear,0,2013-05-18 04:35:00
12:55 AM,44.2,38.7,81,30.20,10.0,Calm,Calm,-,N/A,,Clear,0,2013-05-18 04:55:00
1:15 AM,44.4,39.2,82,30.19,10.0,Calm,Calm,-,N/A,,Clear,0,2013-05-18 05:15:00
1:35 AM,43.0,38.8,85,30.19,10.0,Calm,Calm,-,N/A,,Clear,0,2013-05-18 05:35:00
1:55 AM,41.9,37.6,85,30.18,10.0,Calm,Calm,-,N/A,,Clear,0,2013-05-18 05:55:00
2:15 AM,41.9,38.3,87,30.18,10.0,Calm,Calm,-,N/A,,Clear,0,2013-05-18 06:15:00
2:35 AM,41.7,37.9,86,30.18,10.0,Calm,Calm,-,N/A,,Clear,0,2013-05-18 06:35:00
2:55 AM,41.5,38.5,89,30.18,10.0,Calm,Calm,-,N/A,,Clear,0,2013-05-18 06:55:00
3:15 AM,40.1,36.9,88,30.18,10.0,Calm,Calm,-,N/A,,Clear,0,2013-05-18 07:15:00
3:35 AM,39.6,36.5,89,30.18,10.0,Calm,Calm,-,N/A,,Clear,0,2013-05-18 07:35:00
3:55 AM,39.4,36.5,89,30.19,10.0,Calm,Calm,-,N/A,,Clear,0,2013-05-18 07:55:00
4:15 AM,37.9,34.9,89,30.20,10.0,Calm,Calm,-,N/A,,Clear,0,2013-05-18 08:15:00
4:35 AM,40.1,37.9,92,30.20,7.0,Calm,Calm,-,N/A,,Clear,0,2013-05-18 08:35:00
4:55 AM,41.0,39.0,93,30.20,7.0,Calm,Calm,-,N/A,,Clear,0,2013-05-18 08:55:00
5:15 AM,41.5,39.6,93,30.20,10.0,Calm,Calm,-,N/A,,Clear,0,2013-05-18 09:15:00
5:35 AM,41.4,39.2,92,30.19,10.0,Calm,Calm,-,N/A,,Clear,0,2013-05-18 09:35:00
5:55 AM,43.2,40.5,90,30.20,10.0,Calm,Calm,-,N/A,,Clear,0,2013-05-18 09:55:00
6:15 AM,43.0,40.3,90,30.20,10.0,Calm,Calm,-,N/A,,Clear,0,2013-05-18 10:15:00
6:35 AM,43.9,41.0,90,30.21,10.0,Calm,Calm,-,N/A,,Clear,0,2013-05-18 10:35:00
6:55 AM,44.6,41.0,87,30.21,10.0,Calm,Calm,-,N/A,,Clear,0,2013-05-18 10:55:00
7:15 AM,45.5,42.4,89,30.21,10.0,Calm,Calm,-,N/A,,Clear,0,2013-05-18 11:15:00
7:35 AM,48.9,41.0,74,30.21,10.0,ESE,5.8,-,N/A,,Clear,110,2013-05-18 11:35:00
7:55 AM,50.9,40.1,67,30.21,10.0,ESE,5.8,-,N/A,,Clear,120,2013-05-18 11:55:00
8:15 AM,52.9,38.8,59,30.21,10.0,East,5.8,-,N/A,,Clear,90,2013-05-18 12:15:00
8:35 AM,54.3,38.7,55,30.21,10.0,East,4.6,-,N/A,,Scattered Clouds,100,2013-05-18 12:35:00
8:55 AM,55.0,39.9,57,30.21,10.0,ENE,3.5,-,N/A,,Mostly Cloudy,70,2013-05-18 12:55:00
9:15 AM,51.3,42.1,71,30.21,10.0,Calm,Calm,-,N/A,,Overcast,0,2013-05-18 13:15:00
9:35 AM,53.6,43.5,69,30.21,10.0,North,4.6,-,N/A,,Overcast,10,2013-05-18 13:35:00
9:55 AM,51.1,41.7,70,30.21,10.0,NE,3.5,-,N/A,,Overcast,40,2013-05-18 13:55:00
10:15 AM,49.8,41.5,73,30.21,10.0,NNE,4.6,-,N/A,,Overcast,30,2013-05-18 14:15:00
10:35 AM,50.0,41.9,74,30.22,10.0,North,3.5,-,N/A,,Overcast,10,2013-05-18 14:35:00
10:55 AM,49.1,41.2,74,30.22,10.0,North,4.6,-,N/A,,Overcast,10,2013-05-18 14:55:00
11:15 AM,48.6,41.4,76,30.22,10.0,NE,3.5,-,N/A,Rain,Light Rain,40,2013-05-18 15:15:00
11:35 AM,50.0,41.9,74,30.21,10.0,Calm,Calm,-,N/A,,Overcast,0,2013-05-18 15:35:00
11:55 AM,50.7,42.4,73,30.21,10.0,NNW,3.5,-,N/A,,Overcast,340,2013-05-18 15:55:00
12:15 PM,51.4,43.0,73,30.20,10.0,Calm,Calm,-,N/A,,Overcast,0,2013-05-18 16:15:00
12:35 PM,54.9,44.1,67,30.20,10.0,Calm,Calm,-,N/A,,Overcast,0,2013-05-18 16:35:00
12:56 PM,55.2,43.9,66,30.19,10.0,Calm,Calm,-,N/A,,Overcast,0,2013-05-18 16:56:00
1:15 PM,55.6,44.2,66,30.18,10.0,Calm,Calm,-,N/A,,Overcast,0,2013-05-18 17:15:00
1:35 PM,58.6,44.4,59,30.18,10.0,NNE,3.5,-,N/A,,Overcast,30,2013-05-18 17:35:00
1:55 PM,61.2,43.7,53,30.18,10.0,SE,5.8,-,N/A,,Overcast,130,2013-05-18 17:55:00
2:15 PM,55.4,44.6,67,30.17,10.0,NE,4.6,-,N/A,Rain,Light Rain,50,2013-05-18 18:15:00
2:35 PM,52.9,45.1,75,30.16,10.0,NE,6.9,-,N/A,Rain,Light Rain,40,2013-05-18 18:35:00
3:15 PM,55.6,45.0,67,30.16,10.0,ENE,5.8,-,N/A,,Overcast,60,2013-05-18 19:15:00
3:35 PM,53.6,43.9,70,30.15,10.0,ENE,5.8,-,N/A,,Overcast,60,2013-05-18 19:35:00
3:55 PM,53.8,44.1,70,30.14,10.0,NE,4.6,-,N/A,,Overcast,50,2013-05-18 19:55:00
4:15 PM,54.7,44.4,68,30.14,10.0,Calm,Calm,-,N/A,,Overcast,0,2013-05-18 20:15:00
4:35 PM,54.7,43.7,66,30.13,10.0,ENE,4.6,-,N/A,,Overcast,60,2013-05-18 20:35:00
4:55 PM,55.6,43.9,65,30.12,10.0,ENE,6.9,-,N/A,,Overcast,60,2013-05-18 20:55:00
5:14 PM,50.9,42.3,72,30.12,10.0,NE,5.8,-,N/A,,Overcast,50,2013-05-18 21:14:00
5:35 PM,50.0,41.9,74,30.12,10.0,NE,3.5,-,N/A,,Overcast,50,2013-05-18 21:35:00
5:55 PM,51.4,43.0,73,30.11,10.0,NNE,4.6,-,N/A,,Mostly Cloudy,30,2013-05-18 21:55:00
6:15 PM,51.4,42.8,72,30.11,10.0,NE,4.6,-,N/A,,Overcast,40,2013-05-18 22:15:00
6:35 PM,50.0,42.1,74,30.10,10.0,Calm,Calm,-,N/A,,Overcast,0,2013-05-18 22:35:00
6:55 PM,50.9,42.8,74,30.10,10.0,Calm,Calm,-,N/A,,Overcast,0,2013-05-18 22:55:00
7:15 PM,51.4,43.3,74,30.09,10.0,Calm,Calm,-,N/A,,Overcast,0,2013-05-18 23:15:00
7:35 PM,52.0,43.7,73,30.09,10.0,Calm,Calm,-,N/A,,Overcast,0,2013-05-18 23:35:00
7:55 PM,53.8,44.8,72,30.09,10.0,Calm,Calm,-,N/A,,Overcast,0,2013-05-18 23:55:00
8:15 PM,56.5,45.1,66,30.09,10.0,ESE,4.6,-,N/A,,Mostly Cloudy,110,2013-05-19 00:15:00
8:35 PM,60.3,40.3,48,30.08,10.0,SE,6.9,-,N/A,,Mostly Cloudy,130,2013-05-19 00:35:00
8:55 PM,59.9,39.6,47,30.08,10.0,ESE,8.1,-,N/A,,Scattered Clouds,120,2013-05-19 00:55:00
9:15 PM,59.2,39.9,49,30.07,10.0,ESE,8.1,-,N/A,,Clear,110,2013-05-19 01:15:00
9:35 PM,59.0,39.9,49,30.07,10.0,ESE,8.1,-,N/A,,Clear,120,2013-05-19 01:35:00
9:55 PM,58.5,39.9,50,30.07,10.0,ESE,9.2,-,N/A,,Clear,110,2013-05-19 01:55:00
10:15 PM,58.5,39.6,49,30.07,10.0,ESE,8.1,-,N/A,,Clear,120,2013-05-19 02:15:00
10:35 PM,58.5,39.6,49,30.07,10.0,ESE,6.9,-,N/A,,Scattered Clouds,120,2013-05-19 02:35:00
10:55 PM,58.3,40.1,51,30.07,10.0,SE,6.9,-,N/A,,Overcast,130,2013-05-19 02:55:00
11:15 PM,58.1,39.7,50,30.07,10.0,SE,5.8,-,N/A,,Overcast,130,2013-05-19 03:15:00
11:35 PM,57.7,39.9,51,30.06,10.0,ESE,6.9,-,N/A,,Overcast,120,2013-05-19 03:35:00